Погода в Аэрофлотском

Россия / Республика Крым     45°01′10″N   34°00′13″E
темп.,
°C
ветер,
м/с
пор.,
м/с
влажн.,
%
обл.,
%
осадки,
мм/ч
давл.,
гПа
погр.,
м
8 марта, пн
пн800:00−1ю366184 0.0 1022156
03:00−1ю466242 0.0 1020160
06:00−1ю48659 0.0 1019181
09:00+2ююз586051 0.0 1018845
12:00+5юз795995 0.1 10181364
15:00+5юз8106297 0.2 10161286
18:00+4юз7107298 0.1 1016914
21:00+2ююз5109399 0.4 1016476
9 марта, вт
вт900:00+2юз3492100 0.5 1016151
03:000зюз118671 0.6 101722
06:000зсз01840 0.0 101721
09:00+1ссв237629 0.0 1019392
12:00+2с337295 0.0 1020605
15:00+3сз245795 0.0 10211051
18:00+3сз45428 0.0 1021507
21:00−1ссв225513 0.0 102328
10 марта, ср
ср1000:00−1ссв22550 0.0 102449
03:00−2всв356222 0.0 1024179
06:00−2всв366395 0.0 1024230
09:000всв575898 0.0 1024518
12:00+3всв6650100 0.0 1024911
15:00+3всв775099 0.0 1023992
18:00+1всв71058100 0.0 1021604
21:00−1всв71065100 0.0 1022450
11 марта, чт
чт1100:00−1всв71059100 0.0 1021528
03:00−1всв71162100 0.0 1021656
06:00−1всв71259100 0.0 1021754
09:00−1всв81256100 0.0 1022906
12:00+1всв91142100 0.0 10231135
15:00+2всв91142100 0.0 10231209
18:00−1всв8115627 0.0 1024980
21:00−3всв6116723 0.0 1026765
12 марта, пт
пт1200:00−3всв6106216 0.0 1027695
03:00−4всв610598 0.0 1028666
06:00−4всв59580 0.0 1029566
09:00−3всв68520 0.0 1030609
12:00+1всв45330 0.0 1030784
15:00+3ссв22300 0.0 10291258
18:00+1ссв12460 0.0 1029169
21:00−2юв226617 0.0 102956